TimeCST,TemperatureF,Dew PointF,Humidity,Sea Level PressureIn,VisibilityMPH,Wind Direction,Wind SpeedMPH,Gust SpeedMPH,PrecipitationIn,Events,Conditions,WindDirDegrees,DateUTC
12:15 AM,25.5,16.5,69,30.10,10.0,NNW,6.9,-,N/A,,Scattered Clouds,330,2012-12-31 06:15:00
12:35 AM,25.0,16.0,69,30.09,10.0,NW,8.1,-,N/A,,Scattered Clouds,320,2012-12-31 06:35:00
12:55 AM,24.8,16.2,70,30.11,10.0,NW,8.1,-,N/A,,Clear,320,2012-12-31 06:55:00
1:15 AM,24.4,16.5,72,30.11,10.0,NW,3.5,-,N/A,,Clear,310,2012-12-31 07:15:00
1:35 AM,24.3,16.3,72,30.12,10.0,NW,6.9,-,N/A,,Clear,320,2012-12-31 07:35:00
1:55 AM,23.9,16.5,73,30.13,10.0,NW,9.2,-,N/A,,Clear,320,2012-12-31 07:55:00
2:15 AM,23.9,16.7,74,30.14,10.0,NW,11.5,-,N/A,,Scattered Clouds,320,2012-12-31 08:15:00
2:35 AM,23.4,16.5,75,30.13,10.0,NNW,6.9,-,N/A,,Scattered Clouds,330,2012-12-31 08:35:00
2:55 AM,23.0,16.5,76,30.13,10.0,North,4.6,-,N/A,,Clear,350,2012-12-31 08:55:00
3:15 AM,22.6,16.2,76,30.14,10.0,North,6.9,-,N/A,,Clear,350,2012-12-31 09:15:00
3:35 AM,22.1,16.0,77,30.15,10.0,North,6.9,-,N/A,,Clear,350,2012-12-31 09:35:00
3:55 AM,22.1,16.2,78,30.15,10.0,North,4.6,-,N/A,,Clear,10,2012-12-31 09:55:00
4:15 AM,22.1,15.8,77,30.14,10.0,NNE,6.9,-,N/A,,Scattered Clouds,20,2012-12-31 10:15:00
4:35 AM,21.6,15.4,77,30.15,10.0,North,5.8,-,N/A,,Mostly Cloudy,10,2012-12-31 10:35:00
4:55 AM,21.2,15.4,78,30.14,10.0,North,6.9,-,N/A,,Mostly Cloudy,350,2012-12-31 10:55:00
5:15 AM,20.8,15.4,80,30.15,10.0,North,6.9,-,N/A,,Mostly Cloudy,360,2012-12-31 11:15:00
5:35 AM,20.3,15.3,81,30.15,10.0,North,9.2,-,N/A,,Mostly Cloudy,350,2012-12-31 11:35:00
5:55 AM,20.1,15.3,81,30.16,10.0,North,5.8,-,N/A,,Mostly Cloudy,360,2012-12-31 11:55:00
6:15 AM,19.2,14.5,82,30.16,10.0,North,6.9,-,N/A,,Overcast,360,2012-12-31 12:15:00
6:55 AM,17.6,14.0,86,30.18,10.0,North,10.4,-,N/A,,Overcast,350,2012-12-31 12:55:00
7:15 AM,17.6,14.4,87,30.18,10.0,North,5.8,-,N/A,,Overcast,10,2012-12-31 13:15:00
7:35 AM,17.4,14.5,88,30.18,7.0,North,3.5,-,N/A,,Overcast,360,2012-12-31 13:35:00
7:55 AM,17.6,14.7,88,30.18,7.0,North,3.5,-,N/A,,Overcast,350,2012-12-31 13:55:00
8:15 AM,18.0,14.9,88,30.19,7.0,North,3.5,-,N/A,,Overcast,360,2012-12-31 14:15:00
8:35 AM,18.3,15.3,88,30.19,7.0,Calm,Calm,-,N/A,,Overcast,0,2012-12-31 14:35:00
8:55 AM,18.5,15.4,88,30.19,7.0,North,5.8,-,N/A,,Overcast,360,2012-12-31 14:55:00
9:15 AM,18.9,15.8,88,30.19,7.0,NNW,4.6,-,N/A,,Overcast,340,2012-12-31 15:15:00
9:35 AM,19.4,16.2,87,30.19,7.0,North,3.5,-,N/A,,Overcast,350,2012-12-31 15:35:00
9:55 AM,19.9,16.5,87,30.20,10.0,North,3.5,-,N/A,,Overcast,10,2012-12-31 15:55:00
10:15 AM,20.3,16.7,86,30.21,10.0,North,3.5,-,N/A,,Overcast,360,2012-12-31 16:15:00
10:35 AM,20.8,16.7,84,30.21,10.0,NNE,3.5,-,N/A,,Overcast,20,2012-12-31 16:35:00
10:55 AM,21.2,17.1,84,30.22,10.0,North,5.8,-,N/A,,Overcast,10,2012-12-31 16:55:00
11:15 AM,21.7,17.4,83,30.21,10.0,NNE,5.8,-,N/A,,Overcast,20,2012-12-31 17:15:00
11:35 AM,22.1,17.6,83,30.21,10.0,North,3.5,-,N/A,,Overcast,360,2012-12-31 17:35:00
11:55 AM,22.1,17.4,82,30.21,10.0,North,5.8,-,N/A,,Overcast,10,2012-12-31 17:55:00
12:15 PM,22.6,17.8,82,30.21,10.0,North,4.6,-,N/A,,Overcast,360,2012-12-31 18:15:00
12:35 PM,22.8,17.6,80,30.20,10.0,NE,3.5,-,N/A,,Overcast,40,2012-12-31 18:35:00
12:55 PM,23.0,17.8,80,30.18,10.0,Calm,Calm,-,N/A,,Overcast,0,2012-12-31 18:55:00
1:15 PM,23.0,17.6,80,30.17,10.0,NNE,4.6,-,N/A,,Overcast,30,2012-12-31 19:15:00
1:35 PM,23.4,18.0,80,30.16,10.0,NNE,6.9,-,N/A,,Overcast,20,2012-12-31 19:35:00
1:55 PM,23.4,18.1,80,30.15,10.0,NNE,5.8,-,N/A,,Overcast,20,2012-12-31 19:55:00
2:15 PM,23.4,18.1,80,30.15,10.0,North,5.8,-,N/A,,Overcast,10,2012-12-31 20:15:00
2:35 PM,23.4,18.1,80,30.15,10.0,NNE,3.5,-,N/A,,Overcast,20,2012-12-31 20:35:00
2:55 PM,23.4,18.0,80,30.15,10.0,NNE,3.5,-,N/A,,Overcast,30,2012-12-31 20:55:00
3:15 PM,23.4,18.1,80,30.15,10.0,NNE,4.6,-,N/A,,Overcast,20,2012-12-31 21:15:00
3:35 PM,23.4,17.6,79,30.15,10.0,North,5.8,-,N/A,,Overcast,10,2012-12-31 21:35:00
3:55 PM,23.4,16.7,76,30.15,10.0,North,4.6,-,N/A,,Overcast,10,2012-12-31 21:55:00
4:35 PM,23.4,16.7,76,30.17,10.0,North,5.8,-,N/A,,Overcast,10,2012-12-31 22:35:00
4:55 PM,23.0,15.8,74,30.17,10.0,NNW,6.9,-,N/A,,Overcast,340,2012-12-31 22:55:00
5:15 PM,22.8,15.6,74,30.18,10.0,North,5.8,-,N/A,,Overcast,350,2012-12-31 23:15:00
5:35 PM,22.8,15.8,74,30.18,10.0,North,3.5,-,N/A,,Overcast,350,2012-12-31 23:35:00
5:55 PM,22.8,15.8,74,30.19,10.0,North,3.5,-,N/A,,Overcast,350,2012-12-31 23:55:00
6:15 PM,22.6,15.6,74,30.20,10.0,North,3.5,-,N/A,,Overcast,350,2013-01-01 00:15:00
6:35 PM,22.6,15.6,74,30.20,10.0,North,4.6,-,N/A,,Overcast,360,2013-01-01 00:35:00
6:55 PM,22.5,15.6,75,30.20,10.0,North,4.6,-,N/A,,Overcast,350,2013-01-01 00:55:00
7:15 PM,22.3,15.8,76,30.20,10.0,North,3.5,-,N/A,,Overcast,10,2013-01-01 01:15:00
7:35 PM,22.1,15.3,75,30.21,10.0,Calm,Calm,-,N/A,,Overcast,0,2013-01-01 01:35:00
7:55 PM,22.1,15.3,75,30.21,10.0,Calm,Calm,-,N/A,,Overcast,0,2013-01-01 01:55:00
8:15 PM,21.9,14.9,74,30.21,10.0,North,3.5,-,N/A,,Overcast,360,2013-01-01 02:15:00
8:35 PM,21.7,14.9,75,30.21,10.0,North,4.6,-,N/A,,Overcast,10,2013-01-01 02:35:00
8:55 PM,21.6,14.7,75,30.21,10.0,North,4.6,-,N/A,,Overcast,10,2013-01-01 02:55:00
9:15 PM,21.2,14.4,75,30.21,10.0,North,3.5,-,N/A,,Overcast,10,2013-01-01 03:15:00
9:35 PM,20.8,14.0,75,30.22,10.0,North,4.6,-,N/A,,Scattered Clouds,360,2013-01-01 03:35:00
10:15 PM,20.3,14.0,77,30.22,10.0,North,3.5,-,N/A,,Mostly Cloudy,10,2013-01-01 04:15:00
10:35 PM,19.6,13.8,78,30.23,10.0,North,3.5,-,N/A,,Scattered Clouds,10,2013-01-01 04:35:00
10:55 PM,19.2,13.8,80,30.23,10.0,North,3.5,-,N/A,,Clear,10,2013-01-01 04:55:00
11:15 PM,18.9,13.5,79,30.24,10.0,Calm,Calm,-,N/A,,Mostly Cloudy,0,2013-01-01 05:15:00
11:35 PM,18.3,13.1,80,30.25,10.0,Calm,Calm,-,N/A,,Scattered Clouds,0,2013-01-01 05:35:00